Los Angeles City Businesses
NAICS 541510

Jurisdiction: Los Angeles
Source: City of Los Angeles, Office of Finance

This dataset includes 509 thousand business entities registered with Los Angeles City, Office of Finance. Each business is registered with location account number, legal business name, doing business as (DBA) name, location, mailing address, industry code, business start date, etc.

NAICS 541510 · Search Result

Entity Name Office Address Start Date
S - F GLOBAL HOLDING LLC 19 Wavecrest Avenue #10, Venice, CA 90291-6202 2018-08-15
THE JELLYVISION LAB, INC 848 W Eastman Street Suite #104, Chicago, CA 60642-2635 2018-08-15
SOFTECH & ASSOCIATES INC 1570 Corporate Drive Suite #b, Costa Mesa, CA 92626-1428 2018-07-23
CONSULTING TECHNOLOGY NETWORK, INC. 1318 W Apollo Avenue, Anaheim, CA 92802-1406 2018-07-21
BURJ MOSSAC & COMPANY 1800 Century Parks E Suite #600, Los Angeles, CA 90067-1508 2018-07-18
KICK START DEVELOPMENT, LLC 15021 Ventura Blvd Unit #1070, Sherman Oaks, CA 91403-2442 2018-07-01
GREEKSHOPS.COM · STATION 1 INTERNET SERVICES INC 5435 Balboa Blvd Suite #107, Encino, CA 91316-1561 2018-07-01
GPS IMPACT · GROUNDSWELL PUBLIC STRATEGIES 5914 Pickford Street, Los Angeles, CA 90035-4506 2018-07-01
MERCEDES MARIE VASQUEZ 5916 W 77th Place, Los Angeles, CA 90045-2935 2018-06-27
VALERIIA TYSHCHENKO 1441 Veteran Avenue Apartment #422, Los Angeles, CA 90024-4882 2018-06-22
TECH & HAMMER · HAKOP ADJARIAN 5358 Willis Avenue, Sherman Oaks, CA 91411-4050 2018-06-19
SHORE.COM · SHORE.COM INC. 10100 Venice Blvd Office #330, Culver City, CA 90232-3398 2018-06-15
CULTURE DIGITAL STUDIO, INC 716 E 9th Place, Los Angeles, CA 90021-2004 2018-06-15
REBECCA ARLINE KLEINFELTER 29021 Bouquet Canyon Road Space #264, Santa Clarita, CA 91390-3175 2018-06-15
GOPI SANGHA · CUSP AGENCY LLC 8723 Pickford Street Apartment #1, Los Angeles, CA 90035-3429 2018-06-05
CYBERNETIX GROUP LLC 13414 Bromwich Street, Arleta, CA 91331-5614 2018-06-04
JHC TECHNOLOGY, INC. 401 Post Office Road Suite #201, Waldorf, CA 20602-2738 2018-06-01
TIERFIVE INC · TIERFIVE SOLUTIONS GROUP INCORPERATED 46 Peninsula Center Suite #209, Rolling Hills Estates, CA 90274-3558 2018-06-01
CHINH DAO 355 S Grand Avenue Suite #2450, Los Angeles, CA 90071-9500 2018-05-30
INBOX AFFILIATES INC 257 S Kenmore Avenue Apartment #106, Los Angeles, CA 90004-5617 2018-05-28
OPENNODE, LLC 215 W 6th Street Apartment #308, Los Angeles, CA 90014-1915 2018-05-23
VTR HOLDINGS, LLC 20309 Cantara Street, Winnetka, CA 91306-1815 2018-05-14
RGB DEV · DEVIN BERGER / TIMOTHY PHILLIPS 500 N Heliotrope Drive, Los Angeles, CA 90004-2906 2018-05-14
YURIY YEGOROV 11749 Courtleigh Drive, Los Angeles, CA 90066-6307 2018-05-10
JAMIE AUSTIN 28000 S Western Avenue Unit #339, San Pedro, CA 90732-1209 2018-05-07
CODE AVOCADO LLC 2724 Armacost Avenue, Los Angeles, CA 90064-3504 2018-05-04
JOHN CROOKS 2074 N Commonwealth Avenue, Los Angeles, CA 90027-2826 2018-05-01
FUNCTION H INC. 8806 Wonderland Avenue, Los Angeles, CA 90046-1852 2018-05-01
SCHMIDT PUBLISHING 1926 N Normandie Avenue, Los Angeles, CA 90027-1733 2018-05-01
BDRR CONSULTING · RAY A. RIVERA 966 White Knoll Drive Apartment #4, Los Angeles, CA 90012-1334 2018-04-30
AG IT SECURITY 351 S Fuller Avenue Apartment #11a, Los Angeles, CA 90036-5455 2018-04-20
TEACHTEK 81214 Burbank Blvd, Tarzana, CA 91356-1356 2018-04-20
ELIZABETH ANNE HARRISON 408 Cascada Way, Los Angeles, CA 90049-1711 2018-04-16
FEATHER TECHNOLOGIES INC. 1365 Shadybrook Drive, Beverly Hills, CA 90210-2031 2018-04-16
TEKSAV LLC 120 E 8th Street #205, Los Angeles, CA 90014-3304 2018-04-12
PATAGOL TECH, PATAGOL TECHNOLOGIES · PATAGOL 12400 Ventura Blvd Suite #501, Studio City, CA 91604-2406 2018-04-01
PIERS MORGAN 11935 Dorothy Street Apartment #302, Los Angeles, CA 90049-5339 2018-04-01
OXFORD HR TECHNOLOGY LTD 30 St Giles, Oxford, CA OX1 -3LE 2018-03-27
WIZART ENTERTAINMENT INC. 8721 Santa Monica Blvd Unit #1082, Los Angeles, CA 90069-4507 2018-03-27
Z EXPERIENCE STRATEGY 3704 Midvale Avenue, Los Angeles, CA 90034-6624 2018-03-21
COREQUICK LLC 1257 S Orange Grove Avenue, Los Angeles, CA 90019-6527 2018-03-21
DAVID A AARON 3941 Veselich Avenue Apartment #362, Los Angeles, CA 90039-1495 2018-03-17
NATSOFT CORPORATION 27 Worlds Fair Drive, Somerset, CA 08873-1353 2018-03-15
IRYNA SAUCHANKA 4616 Cahuenga Blvd Apartment #24, Toluca Lake, CA 91602-1551 2018-03-14
CLOUDSQUARE, INC. 8018 Jumilla Avenue, Winnetka, CA 91306-1914 2018-03-12
RIMAM INC 5212 Kester Avenue, Sherman Oaks, CA 91411-4017 2018-03-09
INSPECIFIC INC. 10906 Winnetka Avenue, Chatsworth, CA 91311-1847 2018-03-05
ONE HAPPY TURTLE LLC 4147 Minerva Avenue, Los Angeles, CA 90066-5435 2018-03-05
MAHA USA CO · CP CONNECTION INC 526 N Oxford Avenue Apartment #5, Los Angeles, CA 90004-2767 2018-03-05
DAMON GLOBAL GROUP USA INC 3150 Wilshire Blvd #1918, Los Angeles, CA 90010-1305 2018-03-02
LAWIFIGUY · KRISZTIAN MIZSER 13080 Pacific Promenade Apartment #115, Los Angeles, CA 90094-2112 2018-03-01
MTRIPLE, INC. 10866 Wilshire Blvd Suite #400, Los Angeles, CA 90024-4338 2018-03-01
DUKSEL 811 W 7th Street, Los Angeles, CA 90017-3408 2018-03-01
PERSIS HORIZON · PERSIS HORIZON LLC 18960 Ventura Blvd Unit #150, Tarzana, CA 91356-3224 2018-03-01
COMMUNE HOLDINGS, LLC 3580 Wilshire Blvd #1510, Los Angeles, CA 90010-2501 2018-03-01
OEOE CORP 1740 S Los Angeles Street Suite #207, Los Angeles, CA 90015-3657 2018-03-01
COMPLETE TECHNICAL SOLUTIONS INC 7710 Kester Avenue, Van Nuys, CA 91405-1104 2018-02-23
A & J DESTINY LLC 6356 Van Nuys Blvd Suite #222, Van Nuys, CA 91401-2627 2018-02-20
JONATHAN PLOTNER 2449 S Barrington Avenue Apartment #310, Los Angeles, CA 90064-2956 2018-02-20
GLOBAL SEO GROUP INC 9817 Vicar Street, Los Angeles, CA 90034-2718 2018-02-20
TOOT APP INC 2142 Century Park Lane Apartment #6-315, Los Angeles, CA 90067-3311 2018-02-20
SERGIY FUGOL 811 W 7th Street, Los Angeles, CA 90017-3408 2018-02-19
DATAMINR, INC. 6 E 32nd Street Floor #2, New York, CA 10016-5415 2018-02-19
LAXA TEAM INC 811 W 7th Street, Los Angeles, CA 90017-3408 2018-02-19
FUN-GI GAMES LLC 316 W 2nd Street Suite #1006, Los Angeles, CA 90012-3535 2018-02-19
FII LLC 1540 Curran Street, Los Angeles, CA 90026-2036 2018-02-18
THE GOOD TOUCH 10061 Riverside Drive Suite #318, Toluca Lake, CA 91602-2560 2018-02-16
DEANE OLAES DESIGN · DEANE OLAES 1957 Beloit Avenue #2, Los Angeles, CA 90025-7098 2018-02-14
VIZZER INC 13636 Ventura Blvd Unit #610, Sherman Oaks, CA 91423-3700 2018-02-14
MITCHELL PERLITCH 1452 S Canfield Avenue Apartment #101, Los Angeles, CA 90035-3265 2018-02-12
AMORE DESIGN WERKS · BRIANNE AMORE 4118 Sea View Lane, Los Angeles, CA 90065-3335 2018-02-08
COMMSYS, INC. 3055 Kettering Blvd Suite #415, Moraine, CA 45439-1900 2018-02-06
NAN HOME HEALTH PROFESSIONALS INC. 4858 W Pico Blvd, Los Angeles, CA 90019-4225 2018-02-01
MALLER CONSULTING LLC 11413 Bolas Street, Los Angeles, CA 90049-3419 2018-01-30
XAVIERLAB LLC 5100 Densmore Avenue, Encino, CA 91436-1550 2018-01-30
BLU COLLAR ENTERTAINMENT · PHILLIP ANTHONY LEO II 807 N Hudson Avenue Unit #105, Los Angeles, CA 90038-3658 2018-01-26
LUMATIKA CREATIVE LLC 925 N La Brea Avenue, West Hollywood, CA 90038-2321 2018-01-24
THE AUSTIN TECHNOLOGY GROUP 28000 S Western Avenue Unit #339, San Pedro, CA 90732-1209 2018-01-23
THE HEMMINGS 368 N 57 Avenue, Los Angeles, CA 90042-0042 2018-01-16
NATALIA NECHAEVA 333 Andover Drive Apartment #111, Burbank, CA 91504-3885 2018-01-15
OAZ CONSULTING · ALEX ZITSER 18720 Edleen Drive, Tarzana, CA 91356-4809 2018-01-15
DANZAN CAPITAL 14545 Friar Street #101m, Van Nuys, CA 91411-2397 2018-01-12
APPOSTER INC 3460 W 7th Street Suite #1410, Los Angeles, CA 90005-2317 2018-01-11
LYNDSEY SCOTT LLC 474 Vista Gloriosa Drive, Los Angeles, CA 90065-2527 2018-01-11
DUOMARK 5X5 COMMUNICATIONS · JAY NELSON 6523 Colgate Avenue #326, Los Angeles, CA 90048-4410 2018-01-05
HYPERVELOCITY CONSULTING 5768 W Pico Blvd Suite #211, Los Angeles, CA 90019-3749 2018-01-04
BJ & CO 4133 Redwood Avenue Unit #1027, Los Angeles, CA 90066-5630 2018-01-03
MOB TECH INC 4623 Van Noord Avenue, Sherman Oaks, CA 91423-3329 2018-01-02
WELLINGTON ENTERPRISES 6917 Woodley Avenue, Van Nuys, CA 91406-4844 2018-01-02
SUPERHEART STUDIOS INC 5170 Gloria Avenue, Encino, CA 91436-1531 2018-01-02
HOP ANTICS LLC 3475 Clarington Avenue #106, Los Angeles, CA 90034-3821 2018-01-01
PEGGY OEI 5591 Village Green, Los Angeles, CA 90016-5108 2018-01-01
GARYDID · GARY SHIKHELMAN 1663 Veteran Avenue Apartment #103, Los Angeles, CA 90024-5541 2018-01-01
HOMEVATION, LLC 5013 Gerald Avenue, Encino, CA 91436-1103 2018-01-01
SPACE ESCAPE INC. 11160 Hindry Avenue Unit #l, Los Angeles, CA 90045-6274 2018-01-01
SYSTEMS FOR GOOD 4226 S Bronson Avenue, Los Angeles, CA 90008-4416 2018-01-01
HALL MEDIA, LLC 4000 Davana Road, Sherman Oaks, CA 91423-4636 2018-01-01
JASON SHAPIRO 4173 Colfax Avenue Unit #f, Studio City, CA 91604-2143 2018-01-01
NIMBLE.LA GROUP, LLC 21550 Oxnard Street Suite #720, Woodland Hills, CA 91367-7115 2018-01-01
NHN GLOBAL INC 726 E 12th Street #311, Los Angeles, CA 90021-2136 2018-01-01